Location: Zagreb
(45.8000°N, 16.0000°E)
Time: 12:39:24
(UTC+01:00)

Transit 2A Rocket - Pass Details

Date: 04 October 2020
Orbit: 586 x 916 km, 66.7° (Epoch: 28 October)

Event Time Altitude Azimuth Distance (km) Brightness Sun altitude
Rises 19:37:56 0° 290° (WNW) 3,552 10.2 -12.7°
Reaches altitude 10° 19:42:39 10° 323° (NW) 2,584 8.4 -13.5°
Maximum altitude 19:44:34 11° 342° (NNW) 2,459 8.0 -13.8°
Drops below altitude 10° 19:46:28 10° 0° (N) 2,544 7.8 -14.2°
Sets 19:51:01 0° 33° (NNE) 3,413 8.1 -14.9°
